sat.trackr.live / text

‹ back to catalog

ION SCV-006

NORAD 52761 · 2022-057AF

PAYLOAD ACTIVE UNKNOWN

§ Identity

Operator
Country
IT
Launch date
2022-05-25
Launch site
AFETR
Launch vehicle
Mass (kg)
RCS (m²)

External: N2YO · Heavens-Above · Gunter

§ Orbital elements

Epoch: 2026-09-20T10:08:11.738976Z

Period
93.07 min
Inclination
97.6220°
Eccentricity
0.0017331
Mean motion
15.47244327 rev/d
Perigee alt
413.0 km
Apogee alt
436.6 km
Semi-major
6,802.9 km
B*
1.8785e-4
RAAN
56.8363°
Arg perigee
127.1571°
Mean anomaly
233.1264°
Rev number
24,083

§ Raw data

ION SCV-0061 52761U 22057AF  26263.42235809  .00009520  00000+0  18785-3 0  99962 52761  97.6220  56.8363 0017331 127.1571 233.1264 15.47244327240836

JSON: /api/v1/satellites/52761 · /tle

For live sub-satellite position, see the globe view (requires WebGL).

§ Visibility from observer

Set your observer location to see the next 7 days of passes ≥ 10°. The values pass through the URL so the page stays shareable.

No JS? Fill the form by hand. The geolocation button needs JavaScript.

§ Radio — SatNOGS DB

ModeDescriptionDownlinkUplink
FSK AX.100 Mode 5 Mode U - FSK1k2 AX.100 401.415 MHz
FM S-band telemetry 2.262 GHz

2 transmitters · refreshed weekly from db.satnogs.org